Weather History for Berlin, NH

Change the Weather History Date:

Tuesday, April 30, 2013

  Actual Average Record
Temperature  
Mean Temperature 52 °F -  
Max Temperature 73 °F 57 °F 81 °F (2004)
Min Temperature 30 °F 29 °F 21 °F (2001)
Degree Days  
Heating Degree Days 14    
Growing Degree Days 2 (Base 50)    
Moisture  
Dew Point 34 °F    
Average Humidity 58    
Maximum Humidity 92    
Minimum Humidity 27    
Precipitation  
Precipitation 0.00 in - - ()
Sea Level Pressure  
Sea Level Pressure 30.29 in    
Wind  
Wind Speed 1 mph (South)    
Max Wind Speed 8 mph    
Max Gust Speed -    
Visibility 10 miles    
Events      
Averages and records for this station are not official NWS values.
T = Trace of Precipitation, MM = Missing Value Source: NWS Daily Summary

Daily Weather History Graph

Daily Weather History Graph

Search for Another Location

Airport:

Trip Planner

Search our weather history database for the weather conditions in past years. The results will help you decide how hot, cold, wet, or windy it might be!

Date:

Astronomy

Apr. 30, 2013 Rise Set
Actual Time 5:36 AM EDT 7:48 PM EDT
Civil Twilight 5:04 AM EDT 8:20 PM EDT
Nautical Twilight 4:24 AM EDT 9:00 PM EDT
Astronomical Twilight 3:40 AM EDT 9:44 PM EDT
Moon 12:11 AM EDT (4/30) 9:58 AM EDT (4/30)
Length of Visible Light 15h 16m
Length of Day
14h 12m
Waning Gibbous, 70% of the Moon is Illuminated
Apr 30
Waning Gibbous
May 2
Last Quarter
May 9
New
May 18
First Quarter
May 25
Full

Hourly Weather History & Observations

Time (EDT) Temp. Dew Point Humidity Pressure Visibility Wind Dir Wind Speed Gust Speed Precip Events Conditions
12:52 AM 37.9 °F 35.1 °F 89% 30.25 in 10.0 mi Calm Calm - N/A   Clear
1:52 AM 35.1 °F 32.0 °F 89% 30.25 in 10.0 mi Calm Calm - N/A   Clear
2:52 AM 35.1 °F 32.0 °F 89% 30.25 in 10.0 mi Calm Calm - N/A   Overcast
3:52 AM 34.0 °F 30.9 °F 89% 30.26 in 10.0 mi Calm Calm - N/A   Clear
4:52 AM 30.9 °F 28.9 °F 92% 30.28 in 10.0 mi Calm Calm - N/A   Clear
5:52 AM 30.0 °F 28.0 °F 92% 30.30 in 9.0 mi Calm Calm - N/A   Clear
6:52 AM 36.0 °F 33.1 °F 89% 30.31 in 10.0 mi Calm Calm - N/A   Clear
7:52 AM 44.1 °F 36.0 °F 73% 30.32 in 10.0 mi Calm Calm - N/A   Clear
8:52 AM 53.1 °F 37.0 °F 55% 30.32 in 10.0 mi Calm Calm - N/A   Clear
9:52 AM 60.1 °F 37.9 °F 44% 30.30 in 10.0 mi SSW 3.5 mph - N/A   Clear
10:52 AM 64.9 °F 37.0 °F 36% 30.30 in 10.0 mi Calm Calm - N/A   Clear
11:52 AM 68.0 °F 36.0 °F 31% 30.27 in 10.0 mi SSW 4.6 mph - N/A   Clear
12:52 PM 70.0 °F 37.0 °F 30% 30.26 in 10.0 mi South 8.1 mph - N/A   Clear
1:52 PM 72.0 °F 36.0 °F 27% 30.26 in 10.0 mi Calm Calm - N/A   Clear
3:52 PM 73.0 °F 37.0 °F 27% 30.25 in 10.0 mi South 4.6 mph - N/A   Partly Cloudy
4:52 PM 71.1 °F 36.0 °F 28% 30.25 in 10.0 mi SE 6.9 mph - N/A   Clear
5:52 PM 71.1 °F 36.0 °F 28% 30.26 in 10.0 mi SSE 5.8 mph - N/A   Mostly Cloudy
6:52 PM 66.0 °F 36.0 °F 33% 30.28 in 10.0 mi SSE 6.9 mph - N/A   Partly Cloudy
7:52 PM 61.0 °F 33.1 °F 35% 30.30 in 10.0 mi SSE 5.8 mph - N/A   Clear
8:52 PM 51.1 °F 36.0 °F 56% 30.32 in 10.0 mi Calm Calm - N/A   Clear
9:52 PM 48.0 °F 35.1 °F 61% 30.34 in 10.0 mi Calm Calm - N/A   Clear
10:52 PM 45.0 °F 34.0 °F 65% 30.34 in 10.0 mi Calm Calm - N/A   Clear
11:52 PM 37.9 °F 33.1 °F 83% 30.35 in 10.0 mi Calm Calm - N/A   Clear